Weather History for Grand Island, NE

Change the Weather History Date:

Tuesday, March 12, 2013

  Actual Average Record
Temperature  
Mean Temperature 33 °F 38 °F  
Max Temperature 43 °F 49 °F 81 °F (1900)
Min Temperature 23 °F 26 °F -7 °F (1998)
Degree Days  
Heating Degree Days 32 27  
Month to date heating degree days 384 351  
Since 1 July heating degree days 4853 5112  
Cooling Degree Days 0 0  
Month to date cooling degree days 0 0  
Year to date cooling degree days 0 0  
Moisture  
Dew Point 19 °F    
Average Humidity 53    
Maximum Humidity 78    
Minimum Humidity 27    
Precipitation  
Precipitation 0.00 in 0.06 in 1.20 in (1927)
Month to date precipitation 0.68 0.55  
Year to date precipitation 1.81 1.76  
Snow  
Snow 0.00 in 0.20 in 4.80 in (1940)
Month to date snowfall 3.5 2.3  
Since 1 July snowfall 24.9 24.4  
Snow Depth -    
Sea Level Pressure  
Sea Level Pressure 30.25 in    
Wind  
Wind Speed 16 mph (NW)    
Max Wind Speed 36 mph    
Max Gust Speed 46 mph    
Visibility 10 miles    
Events      
T = Trace of Precipitation, MM = Missing Value Source: NWS Daily Summary

Daily Weather History Graph

Daily Weather History Graph

Search for Another Location

Airport:

Trip Planner

Search our weather history database for the weather conditions in past years. The results will help you decide how hot, cold, wet, or windy it might be!

Date:

Astronomy

Mar. 12, 2013 Rise Set
Actual Time 7:49 AM CDT 7:37 PM CDT
Civil Twilight 7:22 AM CDT 8:04 PM CDT
Nautical Twilight 6:50 AM CDT 8:36 PM CDT
Astronomical Twilight 6:18 AM CDT 9:08 PM CDT
Moon 7:56 AM CDT (3/12) 8:54 PM CDT (3/12)
Length of Visible Light 12h 42m
Length of Day
11h 47m
New Moon, 1% of the Moon is Illuminated
Mar 12
New Moon
Mar 19
First Quarter
Mar 27
Full
Apr 2
Last Quarter
Apr 10
New

Hourly Weather History & Observations

Time (CDT) Temp. Windchill Dew Point Humidity Pressure Visibility Wind Dir Wind Speed Gust Speed Precip Events Conditions
12:53 AM 32.0 °F 26.4 °F 25.0 °F 75% 30.12 in 10.0 mi WNW 5.8 mph - N/A   Clear
1:53 AM 32.0 °F 24.8 °F 26.1 °F 79% 30.12 in 10.0 mi WNW 8.1 mph - N/A   Clear
2:53 AM 32.0 °F 25.6 °F 26.1 °F 79% 30.12 in 10.0 mi WNW 6.9 mph - N/A   Clear
3:53 AM 32.0 °F 24.8 °F 26.6 °F 80% 30.08 in 10.0 mi WNW 8.1 mph - N/A   Clear
4:53 AM 30.9 °F 22.8 °F 24.1 °F 76% 30.13 in 10.0 mi West 9.2 mph - N/A   Clear
5:53 AM 32.0 °F 23.6 °F 24.1 °F 73% 30.14 in 10.0 mi WNW 10.4 mph - N/A   Overcast
6:53 AM 30.9 °F 20.7 °F 23.0 °F 72% 30.18 in 10.0 mi NW 13.8 mph - N/A   Clear
7:53 AM 30.9 °F 19.1 °F 19.9 °F 64% 30.20 in 10.0 mi NNW 18.4 mph 25.3 mph N/A   Clear
8:53 AM 32.0 °F 18.9 °F 19.9 °F 61% 30.23 in 10.0 mi NW 24.2 mph 29.9 mph N/A   Clear
9:53 AM 33.1 °F 20.1 °F 19.0 °F 56% 30.25 in 10.0 mi NNW 25.3 mph 36.8 mph N/A   Clear
10:53 AM 34.0 °F 20.1 °F 19.0 °F 54% 30.27 in 10.0 mi NW 31.1 mph 36.8 mph N/A   Partly Cloudy
11:53 AM 35.1 °F 21.4 °F 19.0 °F 52% 30.30 in 10.0 mi NW 32.2 mph 46.0 mph N/A   Mostly Cloudy
12:53 PM 36.0 °F 23.9 °F 19.0 °F 50% 30.30 in 10.0 mi NNW 25.3 mph 33.4 mph N/A   Partly Cloudy
1:53 PM 39.0 °F 28.8 °F 19.9 °F 46% 30.29 in 10.0 mi NNW 21.9 mph 28.8 mph N/A   Scattered Clouds
2:53 PM 39.0 °F 27.8 °F 18.0 °F 43% 30.28 in 10.0 mi NW 26.5 mph 32.2 mph N/A   Mostly Cloudy
3:53 PM 41.0 °F 31.6 °F 18.0 °F 40% 30.28 in 10.0 mi NNW 20.7 mph 31.1 mph N/A   Mostly Cloudy
4:53 PM 41.0 °F 30.7 °F 12.9 °F 32% 30.28 in 10.0 mi NW 25.3 mph 32.2 mph N/A   Partly Cloudy
5:53 PM 39.9 °F 29.5 °F 9.0 °F 28% 30.30 in 10.0 mi NNW 24.2 mph 33.4 mph N/A   Clear
6:53 PM 37.9 °F 28.5 °F 10.0 °F 32% 30.31 in 10.0 mi NW 17.3 mph - N/A   Clear
7:53 PM 34.0 °F 25.5 °F 12.0 °F 40% 30.33 in 10.0 mi NNW 11.5 mph - N/A   Clear
8:53 PM 28.9 °F 21.1 °F 16.0 °F 58% 30.35 in 10.0 mi North 8.1 mph - N/A   Clear
9:53 PM 27.0 °F - 19.0 °F 72% 30.38 in 10.0 mi Calm Calm - N/A   Clear
10:53 PM 26.1 °F - 16.0 °F 66% 30.39 in 10.0 mi Calm Calm - N/A   Clear
11:53 PM 25.0 °F 20.7 °F 16.0 °F 69% 30.39 in 10.0 mi NNW 3.5 mph - N/A   Clear